Location: De Har
(53.3413°N, 6.6858°E)
Time: 19:34:21
(UTC+00:00)

Meteor 1-20 Rocket - Pass Details

Date: 22 April 2026
Orbit: 818 x 890 km, 81.2° (Epoch: 21 May)

Event Time Altitude Azimuth Distance (km) Brightness Sun altitude
Rises 00:09:37 0° 343° (NNW) 3,363 8.3 -24.0°
Reaches altitude 10° 00:12:05 10° 338° (NNW) 2,425 7.3 -24.0°
Maximum altitude 00:17:18 48° 266° (W) 1,063 4.5 -23.8°
Enters shadow 00:17:55 46° 245° (WSW) 1,092 4.5 -23.8°
